Weather History for Metropolis, IL

Change the Weather History Date:

Sunday, April 27, 2014

  Actual Average (KPAH) Record (KPAH)
Temperature  
Mean Temperature 67 °F 62 °F  
Max Temperature 75 °F 73 °F 89 °F (1989)
Min Temperature 59 °F 50 °F 36 °F (1946)
Degree Days  
Heating Degree Days 0 5  
Month to date heating degree days 230  
Since 1 July heating degree days 4049  
Cooling Degree Days 2 2  
Month to date cooling degree days 32  
Year to date cooling degree days 39  
Growing Degree Days 17 (Base 50)    
Moisture  
Dew Point 56 °F    
Average Humidity 66    
Maximum Humidity 96    
Minimum Humidity 52    
Precipitation  
Precipitation 0.73 in 0.17 in 2.83 in (1985)
Month to date precipitation 4.25  
Year to date precipitation 15.77  
Snow  
Snow 0.00 in 0.00 in 0.00 in (2002)
Month to date snowfall 0.0  
Since 1 July snowfall 9.1  
Snow Depth -    
Sea Level Pressure  
Sea Level Pressure 29.76 in    
Wind  
Wind Speed 4 mph (SE)    
Max Wind Speed 16 mph    
Max Gust Speed 28 mph    
Visibility 10 miles    
Events Rain , Thunderstorm    
T = Trace of Precipitation, MM = Missing Value Source: NWS Daily Summary

Daily Weather History Graph

Daily Weather History Graph

Search for Another Location

Airport:

Trip Planner

Search our weather history database for the weather conditions in past years. The results will help you decide how hot, cold, wet, or windy it might be!

Date:

Astronomy

Apr. 27, 2014 Rise Set
Actual Time 6:05 AM CDT 7:40 PM CDT
Civil Twilight 5:37 AM CDT 8:08 PM CDT
Nautical Twilight 5:04 AM CDT 8:41 PM CDT
Astronomical Twilight 4:28 AM CDT 9:17 PM CDT
Moon 5:02 AM CDT (4/27) 6:16 PM CDT (4/27)
Length of Visible Light 14h 31m
Length of Day
13h 35m
Waning Crescent, 3% of the Moon is Illuminated
Apr 27
Waning Crescent
Apr 29
New
May 6
First Quarter
May 14
Full
May 21
Last Quarter

Hourly Weather History & Observations

Time (CDT) Temp. Dew Point Humidity Pressure Visibility Wind Dir Wind Speed Gust Speed Precip Events Conditions
12:15 AM 59.7 °F 48.7 °F 67% 29.85 in 10.0 mi Calm Calm - N/A   Clear
12:35 AM 60.3 °F 48.6 °F 65% 29.84 in 10.0 mi Calm Calm - N/A   Clear
12:55 AM 60.1 °F 48.7 °F 66% 29.83 in 10.0 mi SSE 3.5 mph - N/A   Clear
1:15 AM 64.9 °F 48.4 °F 55% 29.83 in 10.0 mi SSE 3.5 mph - N/A   Clear
1:35 AM 66.2 °F 48.2 °F 52% 29.83 in 10.0 mi SSE 4.6 mph - N/A   Clear
1:55 AM 66.4 °F 48.2 °F 52% 29.82 in 10.0 mi SSE 3.5 mph - N/A   Clear
2:15 AM 66.0 °F 48.4 °F 53% 29.81 in 10.0 mi Calm Calm - N/A   Clear
2:35 AM 65.7 °F 48.4 °F 54% 29.81 in 10.0 mi Calm Calm - N/A   Clear
2:55 AM 64.6 °F 49.1 °F 57% 29.81 in 10.0 mi Calm Calm - N/A   Clear
3:15 AM 65.3 °F 49.1 °F 56% 29.81 in 10.0 mi Calm Calm - N/A   Clear
3:35 AM 65.3 °F 49.3 °F 56% 29.81 in 10.0 mi SSE 3.5 mph - N/A   Clear
3:55 AM 65.5 °F 49.5 °F 56% 29.80 in 10.0 mi Calm Calm - N/A   Clear
4:15 AM 64.9 °F 50.0 °F 58% 29.81 in 10.0 mi SE 3.5 mph - N/A   Clear
4:35 AM 63.7 °F 50.5 °F 62% 29.81 in 10.0 mi Calm Calm - N/A   Clear
4:55 AM 61.2 °F 50.9 °F 69% 29.81 in 10.0 mi Calm Calm - N/A   Clear
5:15 AM 60.8 °F 50.9 °F 70% 29.81 in 10.0 mi ESE 3.5 mph - N/A   Mostly Cloudy
5:35 AM 61.5 °F 50.9 °F 68% 29.81 in 10.0 mi Calm Calm - N/A   Scattered Clouds
5:55 AM 60.8 °F 51.1 °F 70% 29.81 in 10.0 mi East 3.5 mph - N/A   Clear
6:15 AM 61.2 °F 50.9 °F 69% 29.82 in 10.0 mi East 3.5 mph - N/A   Clear
6:35 AM 61.7 °F 50.9 °F 68% 29.83 in 10.0 mi Calm Calm - N/A   Clear
6:55 AM 62.8 °F 51.4 °F 66% 29.83 in 10.0 mi Calm Calm - N/A   Clear
7:15 AM 63.7 °F 51.8 °F 65% 29.83 in 10.0 mi Calm Calm - N/A   Clear
7:35 AM 64.9 °F 52.2 °F 63% 29.83 in 10.0 mi East 3.5 mph - N/A   Mostly Cloudy
7:55 AM 66.4 °F 52.5 °F 61% 29.83 in 10.0 mi ESE 3.5 mph - N/A   Overcast
8:15 AM 67.1 °F 52.9 °F 60% 29.81 in 10.0 mi East 4.6 mph - N/A   Mostly Cloudy
8:35 AM 68.9 °F 54.1 °F 59% 29.81 in 10.0 mi ESE 4.6 mph - N/A   Clear
8:55 AM 70.2 °F 54.3 °F 57% 29.80 in 10.0 mi ESE 4.6 mph - N/A   Scattered Clouds
9:15 AM 70.7 °F 55.4 °F 58% 29.81 in 10.0 mi ESE 5.8 mph - N/A   Scattered Clouds
9:35 AM 71.2 °F 55.8 °F 58% 29.81 in 10.0 mi ESE 4.6 mph - N/A   Mostly Cloudy
9:55 AM 72.3 °F 56.3 °F 57% 29.81 in 10.0 mi ESE 5.8 mph - N/A   Overcast
10:15 AM 72.1 °F 56.8 °F 58% 29.81 in 10.0 mi ESE 5.8 mph - N/A   Overcast
10:35 AM 73.0 °F 58.3 °F 60% 29.79 in 10.0 mi SE 3.5 mph - N/A   Overcast
11:15 AM 74.7 °F 59.4 °F 59% 29.79 in 10.0 mi SE 9.2 mph - N/A Thunderstorm Mostly Cloudy
11:35 AM 73.8 °F 59.9 °F 62% 29.80 in 10.0 mi South 6.9 mph - N/A Thunderstorm Overcast
11:55 AM 75.0 °F 60.3 °F 60% 29.79 in 10.0 mi South 12.7 mph 19.6 mph N/A Thunderstorm Thunderstorm
12:35 PM 74.3 °F 59.9 °F 61% 29.80 in 10.0 mi South 12.7 mph 20.7 mph N/A Thunderstorm Mostly Cloudy
12:55 PM 73.8 °F 60.6 °F 63% 29.80 in 10.0 mi South 10.4 mph 21.9 mph N/A Thunderstorm Overcast
1:15 PM 73.6 °F 60.8 °F 64% 29.79 in 10.0 mi South 13.8 mph 18.4 mph N/A   Overcast
1:35 PM 72.9 °F 61.3 °F 67% 29.77 in 10.0 mi South 15.0 mph 21.9 mph N/A Rain Light Rain
1:55 PM 73.9 °F 61.0 °F 64% 29.73 in 10.0 mi South 15.0 mph 20.7 mph N/A   Scattered Clouds
2:15 PM 73.8 °F 61.2 °F 65% 29.70 in 10.0 mi SSE 12.7 mph 21.9 mph N/A   Scattered Clouds
2:35 PM 73.4 °F 61.0 °F 65% 29.69 in 10.0 mi SE 16.1 mph 21.9 mph N/A   Mostly Cloudy
2:55 PM 73.8 °F 59.7 °F 61% 29.67 in 10.0 mi SE 13.8 mph 20.7 mph N/A   Mostly Cloudy
3:15 PM 73.4 °F 59.0 °F 61% 29.67 in 10.0 mi SE 10.4 mph 21.9 mph N/A   Mostly Cloudy
3:35 PM 73.6 °F 58.3 °F 59% 29.67 in 10.0 mi SSE 10.4 mph 18.4 mph N/A   Mostly Cloudy
3:55 PM 73.6 °F 57.4 °F 57% 29.70 in 10.0 mi SSE 6.9 mph - N/A   Scattered Clouds
4:15 PM 74.1 °F 56.8 °F 55% 29.74 in 10.0 mi South 10.4 mph - N/A   Clear
4:35 PM 73.8 °F 54.9 °F 52% 29.75 in 10.0 mi SSW 8.1 mph - N/A   Scattered Clouds
5:15 PM 72.0 °F 56.3 °F 58% 29.72 in 10.0 mi SSE 9.2 mph - N/A   Mostly Cloudy
5:35 PM 71.6 °F 56.7 °F 59% 29.75 in 10.0 mi South 9.2 mph - N/A   Scattered Clouds
5:55 PM 71.1 °F 57.2 °F 61% 29.78 in 10.0 mi South 12.7 mph - N/A   Mostly Cloudy
6:15 PM 70.2 °F 57.9 °F 65% 29.77 in 10.0 mi South 6.9 mph - N/A Rain , Thunderstorm Light Thunderstorms and Rain
6:35 PM 69.3 °F 58.6 °F 69% 29.73 in 10.0 mi SE 5.8 mph - N/A   Mostly Cloudy
6:55 PM 68.4 °F 59.0 °F 72% 29.71 in 10.0 mi ESE 4.6 mph - N/A Rain Light Rain
7:15 PM 66.7 °F 60.4 °F 80% 29.71 in 7.0 mi South 6.9 mph - 0.02 in Rain Light Rain
7:35 PM 66.2 °F 61.7 °F 85% 29.69 in 10.0 mi SE 5.8 mph - 0.02 in   Scattered Clouds
7:55 PM 65.7 °F 62.2 °F 89% 29.67 in 10.0 mi ESE 8.1 mph - 0.02 in   Clear
8:15 PM 65.5 °F 62.2 °F 89% 29.67 in 10.0 mi SE 3.5 mph - N/A Thunderstorm Clear
8:35 PM 65.5 °F 61.9 °F 88% 29.67 in 10.0 mi ESE 5.8 mph - N/A Thunderstorm Clear
8:55 PM 65.3 °F 61.7 °F 88% 29.66 in 10.0 mi SE 8.1 mph - N/A Rain Light Rain
9:15 PM 65.1 °F 61.7 °F 89% 29.68 in 7.0 mi SSE 8.1 mph 18.4 mph 0.03 in Rain Rain
9:35 PM 64.8 °F 61.7 °F 90% 29.67 in 10.0 mi SE 8.1 mph 16.1 mph 0.05 in Rain Light Rain
9:55 PM 64.9 °F 61.0 °F 87% 29.66 in 10.0 mi SSE 10.4 mph 17.3 mph 0.05 in   Mostly Cloudy
10:15 PM 65.3 °F 60.8 °F 85% 29.67 in 7.0 mi SE 8.1 mph 16.1 mph 0.02 in Rain , Thunderstorm Rain
10:35 PM 65.5 °F 61.0 °F 85% 29.65 in 10.0 mi SE 9.2 mph 16.1 mph 0.02 in Thunderstorm Overcast
10:55 PM 68.4 °F 60.8 °F 77% 29.63 in 10.0 mi SE 10.4 mph 20.7 mph 0.03 in Rain , Thunderstorm Light Thunderstorms and Rain
11:15 PM 68.4 °F 60.4 °F 76% 29.62 in 10.0 mi SE 12.7 mph 23.0 mph N/A Rain , Thunderstorm Light Thunderstorms and Rain
11:35 PM 64.9 °F 58.5 °F 79% 29.68 in 2.5 mi West 16.1 mph 27.6 mph 0.27 in Rain , Thunderstorm Heavy Thunderstorms and Rain
11:55 PM 61.9 °F 60.8 °F 96% 29.67 in 2.5 mi WSW 6.9 mph - 0.63 in Rain , Thunderstorm Heavy Thunderstorms and Rain